This demonstration page uses our WeatherBlox Daily Observations layout. Learn more.

Left ArrowRight Arrow

Hourly Observations for July 23, 2018

Temp ( °F °C ) Dew Point ( °F °C ) Humidity (%) Winds ( mph kmh ) Pressure ( in mb ) Visibility ( mi km ) Precip ( " mm )
12:53 am 00:53 Clear 55 12.8 42 5.6 62 62 S 6 9 30.25 1024 10 16 0.00 0.00
1:53 am 01:53 Clear 51 10.6 42 5.6 71 71 VRB 3 6 30.25 1024 10 16 0.00 0.00
2:53 am 02:53 Clear 51 10.6 42 5.6 71 71 SW 5 7 30.25 1025 10 16 0.00 0.00
3:53 am 03:53 Clear 52 11.1 43 6.1 72 72 Calm 30.25 1025 10 16 0.00 0.00
4:53 am 04:53 Clear 48 8.9 40 4.4 74 74 Calm 30.26 1025 10 16 0.00 0.00
5:53 am 05:53 Sunny 48 8.9 41 5 77 77 Calm 30.26 1025 10 16 0.00 0.00
6:53 am 06:53 Sunny 53 11.7 43 6.1 69 69 Calm 30.25 1025 10 16 0.00 0.00
7:53 am 07:53 Sunny 58 14.4 43 6.1 58 58 E 3 6 30.25 1024 10 16 0.00 0.00
8:53 am 08:53 Sunny 65 18.3 42 5.6 43 43 VRB 3 6 30.24 1024 10 16 0.00 0.00
9:53 am 09:53 Sunny 70 21.1 43 6.1 38 38 ENE 12 19 30.24 1024 10 16 0.00 0.00
10:53 am 10:53 Sunny 76 24.4 41 5 29 29 ENE 8 13 30.22 1023 10 16 0.00 0.00
11:53 am 11:53 Sunny 79 26.1 41 5 26 26 NE 9 15 30.20 1023 10 16 0.00 0.00
12:53 pm 12:53 Sunny 81 27.2 41 5 24 24 ENE 12 19 30.17 1022 10 16 0.00 0.00
1:53 pm 13:53 Sunny 84 28.9 42 5.6 23 23 E 13 20 30.14 1021 10 16 0.00 0.00
2:53 pm 14:53 Sunny 84 28.9 42 5.6 23 23 NNE 7 11 30.12 1020 10 16 0.00 0.00
3:53 pm 15:53 Mostly Sunny 87 30.6 42 5.6 21 21 ENE 13 20 30.10 1019 10 16 0.00 0.00
4:53 pm 16:53 Sunny 85 29.4 40 4.4 20 20 SE 5 7 30.09 1019 10 16 0.00 0.00
5:53 pm 17:53 Sunny 87 30.6 39 3.9 18 18 VRB 6 9 30.08 1019 10 16 0.00 0.00
6:53 pm 18:53 Sunny 86 30 42 5.6 21 21 ENE 13 20 30.07 1018 10 16 0.00 0.00
7:53 pm 19:53 Sunny 83 28.3 43 6.1 24 24 E 12 19 30.07 1018 10 16 0.00 0.00
8:53 pm 20:53 Sunny 78 25.6 45 7.2 31 31 E 10 17 30.06 1018 10 16 0.00 0.00
9:53 pm 21:53 Clear 75 23.9 44 6.7 33 33 E 12 19 30.06 1018 10 16 0.00 0.00
10:53 pm 22:53 Clear 74 23.3 44 6.7 34 34 ENE 16 26 30.07 1018 10 16 0.00 0.00
11:53 pm 23:53 Clear 71 21.7 44 6.7 38 38 E 20 31 30.07 1018 10 16 0.00 0.00

Powered by AerisWeather